TimeEDT,TemperatureF,Dew PointF,Humidity,Sea Level PressureIn,VisibilityMPH,Wind Direction,Wind SpeedMPH,Gust SpeedMPH,PrecipitationIn,Events,Conditions,WindDirDegrees,DateUTC
12:56 AM,66.9,61.0,81,30.09,6.0,South,3.5,-,N/A,,Haze,190,2013-08-22 04:56:00
1:56 AM,66.9,61.0,81,30.09,5.0,SW,4.6,-,N/A,,Haze,230,2013-08-22 05:56:00
2:56 AM,66.9,63.0,87,30.08,4.0,SW,4.6,-,N/A,,Partly Cloudy,230,2013-08-22 06:56:00
3:52 AM,66.2,64.4,94,30.11,2.5,SSW,3.5,-,N/A,,Mostly Cloudy,210,2013-08-22 07:52:00
3:56 AM,66.9,64.0,90,30.07,2.5,SSW,3.5,-,N/A,,Mostly Cloudy,210,2013-08-22 07:56:00
4:15 AM,66.2,62.6,88,30.10,1.8,Calm,Calm,-,N/A,,Partly Cloudy,0,2013-08-22 08:15:00
4:28 AM,64.4,62.6,94,30.10,1.0,WSW,3.5,-,N/A,,Mist,240,2013-08-22 08:28:00
4:56 AM,66.0,64.0,93,30.07,1.5,SW,3.5,-,N/A,,Overcast,230,2013-08-22 08:56:00
5:14 AM,66.2,64.4,94,30.10,2.0,SW,5.8,-,N/A,,Overcast,230,2013-08-22 09:14:00
5:29 AM,66.2,64.4,94,30.10,1.8,SW,4.6,-,N/A,,Overcast,230,2013-08-22 09:29:00
5:56 AM,66.9,64.0,90,30.05,1.8,SW,4.6,-,N/A,,Overcast,230,2013-08-22 09:56:00
6:44 AM,66.2,64.4,94,30.10,2.5,WSW,6.9,-,N/A,,Overcast,240,2013-08-22 10:44:00
6:51 AM,66.2,64.4,94,30.10,1.8,SW,8.1,-,N/A,,Overcast,230,2013-08-22 10:51:00
6:56 AM,66.9,64.0,90,30.06,1.8,SW,9.2,-,N/A,,Overcast,230,2013-08-22 10:56:00
7:23 AM,66.2,64.4,94,30.11,2.5,WSW,8.1,-,N/A,,Overcast,250,2013-08-22 11:23:00
7:35 AM,66.2,64.4,94,30.11,3.0,WSW,8.1,-,N/A,,Overcast,250,2013-08-22 11:35:00
7:48 AM,66.2,64.4,94,30.11,2.5,SW,8.1,-,N/A,,Overcast,230,2013-08-22 11:48:00
7:56 AM,66.9,64.0,90,30.07,2.5,SW,9.2,-,N/A,,Overcast,230,2013-08-22 11:56:00
8:40 AM,68.0,64.4,88,30.11,3.0,SW,4.6,-,N/A,,Overcast,220,2013-08-22 12:40:00
8:56 AM,68.0,64.0,87,30.08,4.0,SW,8.1,-,N/A,,Overcast,230,2013-08-22 12:56:00
9:54 AM,69.8,64.4,83,30.11,7.0,SW,8.1,-,N/A,,Overcast,230,2013-08-22 13:54:00
9:56 AM,70.0,64.0,81,30.08,7.0,WSW,6.9,-,N/A,,Overcast,240,2013-08-22 13:56:00
10:56 AM,73.0,64.9,76,30.07,7.0,WSW,6.9,-,N/A,,Mostly Cloudy,250,2013-08-22 14:56:00
11:14 AM,75.2,66.2,73,30.10,7.0,WSW,5.8,-,N/A,,Scattered Clouds,240,2013-08-22 15:14:00
11:23 AM,73.4,64.4,73,30.10,7.0,SSW,5.8,-,N/A,,Mostly Cloudy,200,2013-08-22 15:23:00
11:31 AM,73.4,64.4,73,30.10,7.0,WSW,5.8,-,N/A,,Mostly Cloudy,250,2013-08-22 15:31:00
11:56 AM,75.0,66.0,73,30.06,7.0,West,8.1,-,N/A,,Mostly Cloudy,260,2013-08-22 15:56:00
12:47 PM,77.0,66.2,69,30.08,8.0,SSW,8.1,-,N/A,,Scattered Clouds,210,2013-08-22 16:47:00
12:56 PM,78.1,66.9,68,30.04,8.0,West,9.2,-,N/A,,Mostly Cloudy,260,2013-08-22 16:56:00
1:56 PM,81.0,66.0,60,30.01,10.0,SW,11.5,-,N/A,,Scattered Clouds,220,2013-08-22 17:56:00
2:56 PM,80.1,69.1,69,29.99,9.0,West,6.9,-,0.01,,Mostly Cloudy,270,2013-08-22 18:56:00
3:12 PM,78.8,66.2,65,30.03,10.0,West,9.2,19.6,N/A,Thunderstorm,Partly Cloudy,260,2013-08-22 19:12:00
3:27 PM,80.6,66.2,61,30.02,10.0,WSW,16.1,19.6,N/A,,Scattered Clouds,250,2013-08-22 19:27:00
3:56 PM,80.1,66.9,64,29.98,10.0,WSW,12.7,17.3,N/A,,Mostly Cloudy,250,2013-08-22 19:56:00
4:56 PM,79.0,68.0,69,29.97,10.0,WSW,9.2,-,N/A,,Mostly Cloudy,240,2013-08-22 20:56:00
5:56 PM,78.1,64.9,64,29.96,10.0,West,15.0,-,N/A,,Clear,260,2013-08-22 21:56:00
6:56 PM,77.0,64.9,66,29.96,10.0,West,8.1,-,N/A,,Mostly Cloudy,270,2013-08-22 22:56:00
7:10 PM,75.2,66.2,73,30.00,6.0,SW,9.2,-,0.00,Rain-Thunderstorm,Light Thunderstorms and Rain,230,2013-08-22 23:10:00
7:53 PM,69.8,66.2,88,30.02,4.0,Calm,Calm,-,0.00,,Scattered Clouds,0,2013-08-22 23:53:00
7:56 PM,70.0,66.0,87,29.99,4.0,SW,3.5,-,0.00,,Partly Cloudy,230,2013-08-22 23:56:00
8:03 PM,69.8,66.2,88,30.02,4.0,West,4.6,-,N/A,Thunderstorm,Partly Cloudy,270,2013-08-23 00:03:00
8:18 PM,71.6,64.4,78,30.02,10.0,WNW,5.8,-,N/A,,Clear,290,2013-08-23 00:18:00
8:56 PM,71.1,63.0,75,30.01,10.0,WNW,3.5,-,N/A,,Clear,290,2013-08-23 00:56:00
9:56 PM,70.0,63.0,78,30.01,10.0,Calm,Calm,-,N/A,,Clear,0,2013-08-23 01:56:00
10:56 PM,66.0,63.0,90,30.02,4.0,WSW,3.5,-,N/A,,Clear,250,2013-08-23 02:56:00
11:56 PM,68.0,63.0,84,30.02,7.0,Calm,Calm,-,N/A,,Clear,0,2013-08-23 03:56:00